Regional Weather Roundup
Issued by NWS

Home | Current Version | Previous Version | Graphics & Text | Print | Product List | Glossary On
Versions: 1 2 3 4 5 6 7 8 9 10 11 12 13 14 15 16 17 18 19 20 21 22 23 24 25 26 27 28 29 30 31 32 33 34 35 36 37 38 39 40 41 42 43 44 45 46 47 48 49 50
000
ASUS43 KMKX 180059
RWRWI

WISCONSIN REGIONAL WEATHER ROUNDUP
NATIONAL WEATHER SERVICE MILWAUKEE/SULLIVAN WI
700 PM CST TUE JAN 17 2017

NOTE: "FAIR" INDICATES FEW OR NO CLOUDS BELOW 12,000 FEET WITH NO
SIGNIFICANT WEATHER AND/OR OBSTRUCTIONS TO VISIBILITY.

WIZ001-002-006>008-014>016-023>028-180200-
NORTHWEST WISCONSIN

CITY           SKY/WX    TMP DP  RH WIND       PRES   REMARKS
SUPERIOR ARPT  PTCLDY    22  21  96 SW3       29.92R
ASHLAND        CLEAR     25  22  88 CALM      29.92S
HAYWARD        CLEAR     25  20  81 CALM      29.92S
SIREN          CLEAR     28  24  85 SW6       29.95S WCI  22
CUMBERLAND     CLEAR     30  27  86 W6        29.94S WCI  24
RICE LAKE      CLEAR     32  28  86 SW3       29.96R
CHETEK         CLEAR     30  30  98 CALM      29.94F FOG
LADYSMITH      CLEAR     32  30  94 CALM      29.93F
EAU CLAIRE     NOT AVBL
MENOMONIE      CLEAR     32  30  92 SW5       29.96F WCI  27
NEW RICHMOND   CLOUDY    32  31  99 W7        29.97S FOG     WCI  25
OSCEOLA        CLOUDY    32  32 100 SW7       30.00F WCI  26
$$

WIZ003>005-009-010-017-018-180200-
NORTH CENTRAL WISCONSIN

CITY           SKY/WX    TMP DP  RH WIND       PRES   REMARKS
MANITOWISH WTR NOT AVBL
ARBOR VITAE    CLEAR     29  27  92 CALM      29.90S
WOODRUFF       CLEAR     29  27  92 CALM      29.90S
RHINELANDER    PTCLDY    35  32  88 CALM      29.89F
EAGLE RIVER    CLEAR     30  29  99 CALM      29.89S
LAND O LAKES   CLEAR     27  24  89 CALM      29.90F
PHILLIPS       CLEAR     25  25 100 CALM      29.90S
TOMAHAWK       CLOUDY    31  30  95 CALM      29.91S
MEDFORD        CLEAR     34  32  92 W6        29.91S WCI  29
MERRILL        CLOUDY    35  35 100 CALM        N/A
$$

WIZ029-030-035-036-043>047-180200-
CENTRAL WISCONSIN

CITY           SKY/WX    TMP DP  RH WIND       PRES   REMARKS
WAUSAU         CLOUDY    34  34 100 CALM      29.90S
MOSINEE        CLOUDY    34  34 100 W3        29.92S
MARSHFIELD     MOCLDY    35  33  92 NW7       29.92R WCI  29
STEVENS POINT  CLOUDY    32  32 100 CALM      29.94R FOG
WAUPACA        CLOUDY    36  34  93 CALM      29.94R FOG
WAUTOMA        CLOUDY    34  33  96 W5        29.95R FOG     WCI  30
WISC RAPIDS    CLOUDY    34  34 100 CALM      29.95S FOG
CAMP DOUGLAS   NOT AVBL
$$

WIZ011>013-019>022-031-037>040-048>050-180200-
NORTHEAST WISCONSIN

CITY           SKY/WX    TMP DP  RH WIND       PRES   REMARKS
ANTIGO         MOCLDY    33  33 100 CALM      29.90S FOG
SHAWANO        CLOUDY    35  33  94 CALM      29.92S FOG
OCONTO         NOT AVBL
STURGEON BAY   FOG       32  32 100 N9        29.91R VSB 1/2 WCI  24
GREEN BAY      CLOUDY    35  35 100 NW5       29.93R FOG     WCI  31
MANITOWOC      CLOUDY    34  34 100 NW8       29.91S FOG     WCI  27
APPLETON         N/A     34  34 100 NW6       29.91R FOG     WCI  29
CLINTONVILLE   FOG       34  32  93 W5        29.93R VSB 3/4 WCI  30
OSHKOSH        FOG       33  32  96 NW6       29.92S VSB 3/4 WCI  28
$$

WIZ032>034-041-042-053>061-180200-
SOUTHWEST WISCONSIN

CITY           SKY/WX    TMP DP  RH WIND       PRES   REMARKS
LA CROSSE      CLOUDY    36  34  92 CALM      29.99R
SPARTA         CLOUDY    33  33 100 CALM      29.98S FOG
VIROQUA        CLOUDY    32  32 100 NW8       29.96R VSB 1/2 WCI  25
BOSCOBEL       CLOUDY    34  32  92 SW5       30.00R WCI  30
PRAIRIE DU CHI CLOUDY    33  32  96 CALM      30.01R
PLATTEVILLE    CLOUDY    33  33 100 W9        29.98R WCI  26
$$

WIZ056-057-062-063-064-067-068-180200-
SOUTH CENTRAL WISCONSIN

CITY           SKY/WX    TMP DP  RH WIND       PRES   REMARKS
REEDSBURG      NOT AVBL
BARABOO/DELLS  FOG       33  33  99 W5        29.95R VSB 1   WCI  28
LONE ROCK      NOT AVBL
MINERAL POINT  CLOUDY    34  34 100 W7        29.96R WCI  28
MADISON        DRIZZLE   34  33  96 MISG      29.96R
MIDDLETON      CLOUDY    35  35 100 W6        29.95S WCI  30
WATERTOWN      CLOUDY    33  33 100 W5        29.94R FOG     WCI  29
MONROE         LGT SNOW  32  32 100 W10       29.95S WCI  24
JANESVILLE     CLOUDY    36  36 100 W7        29.95R FOG     WCI  30
$$

WIZ051-052-058>065-066-070>072-180200-
SOUTHEAST WISCONSIN

CITY           SKY/WX    TMP DP  RH WIND       PRES   REMARKS
MILWAUKEE      LGT RAIN  36  33  89 W8        29.93S FOG     WCI  30
WAUKESHA       CLOUDY    32  32 100 W8        29.94R FOG     WCI  25
MILWAUKEE/TIMM CLOUDY    34  32  93 W5        29.94R FOG     WCI  30
RACINE         CLOUDY    36  33  89 W6        29.95R FOG     WCI  31
KENOSHA        CLOUDY    35  34  96 W8        29.94R FOG     WCI  29
FOND DU LAC    CLOUDY    34  31  88 NW6       29.92S FOG     WCI  29
SHEBOYGAN      LGT RAIN  34  32  92 NW6       29.91R FOG     WCI  29
WEST BEND      CLOUDY    32  32 100 W7        29.92R FOG     WCI  26
JUNEAU         DRZL/FOG  32  32  99 W3        29.94R VSB 1/4
$$

LSZ147-162-180200-
LAKE SUPERIOR

STATION/POSITION TIME  TEMP    WIND        PRES    WAVE
                       AIR SEA DIR/SP/G            HT/PER
                 (UTC) (F)     (DEG/KT/KT) (MB)    (FT/S)
DEVILS ISLAND    0000   31     180/  7/  8 1013.7F
PORT WING        0030   25     150/  2/  4 1012.9S
SAXON HARBOR     0030   25     190/  3/  4 1012.9S
$$

LMZ867-665-643>646-180200-
LAKE MICHIGAN

STATION/POSITION TIME  TEMP    WIND        PRES    WAVE
                       AIR SEA DIR/SP/G            HT/PER
                 (UTC) (F)     (DEG/KT/KT) (MB)    (FT/S)
NORTHPORT PIER   0040   33      10/  6/  8 1012.5S
ALGOMA LAKESHORE 2238          330/  9/ 12   N/A
KEWAUNEE LAKESHO 0030   33     320/  5/  9 1012.0R
SHEBOYGAN LAKESH 0000   35     290/  7/  8 1013.1R
PORT WASHINGTON  0040   35     280/  5/  8 1014.2R
MILWAUKEE LAKESH 0030   35     280/  8/ 11   N/A
KENOSHA   LAKESH 0000   36     280/  8/ 13 1013.9
$$

TC  - TEMPERATURE IN CELSIUS
VSB - VISIBILITY IN STATUTE MILES
WCI - WIND CHILL INDEX
HX  - HEAT INDEX





USA.gov is the U.S. government's official web portal to all federal, state and local government web resources and services.